Skip Page Navigation
NASA JPL Caltech
NASA Logo - Jet Propulsion Laboratory + View the NASA Portal
+ Center for Near-Earth Object Studies
JPL Home Earth Solar System Stars & Galaxies Technology
JPL Solar System Dynamics
BODIES ORBITS EPHEMERIDES TOOLS PHYSICAL DATA DISCOVERY FAQ SITE MAP
IMPORTANT: The SSD Announcement email list is now available. Major changes are coming in the near future, including possible hostname and/or URL changes. To be notified of such changes, subscribe to this email list.

Please visit this page for more details.


JPL Small-Body Database Browser
Search: [ help ]  
277647 (2006 BM118)
Classification: Main-belt Asteroid          SPK-ID: 2277647
Ephemeris | Orbit Diagram | Orbital Elements | Mission Design | Physical Parameters | Discovery Circumstances | Close-Approach Data ]

[ show orbit diagram ]
Orbital Elements at Epoch 2458600.5 (2019-Apr-27.0) TDB
Reference: JPL 14 (heliocentric ecliptic J2000)
 Element Value Uncertainty (1-sigma)   Units 
e .0598976454322709 5.1071e-08  
a 3.022201384664863 3.7834e-08 au
q 2.841178637701288 1.4921e-07 au
i 9.546857125857326 7.5443e-06 deg
node 321.0427419165504 3.0393e-05 deg
peri 290.1619994708829 7.1821e-05 deg
M 92.45041813395218 6.2352e-05 deg
tp 2458107.678205069040
(2017-Dec-20.17820507)
0.00033423 TDB
period 1919.037790808974
5.25
3.6035e-05
9.866e-08
d
yr
n .1875940128559122 3.5226e-09 deg/d
Q 3.203224131628436 4.01e-08 au
  Orbit Determination Parameters
   # obs. used (total)      162  
   data-arc span      5851 days (16.02 yr)  
   first obs. used      2003-10-29  
   last obs. used      2019-11-05  
   planetary ephem.      DE431  
   SB-pert. ephem.      SB431-N16  
   condition code      0  
   norm. resid. RMS      .5223  
   source      ORB  
   producer      Otto Matic  
   solution date      2019-Dec-04 20:11:07  

Additional Information
 Earth MOID = 1.84407 au 
 Jupiter MOID = 1.94042 au 
 T_jup = 3.222 
[ show covariance matrix ]

Ephemeris | Orbit Diagram | Orbital Elements | Mission Design | Physical Parameters | Discovery Circumstances | Close-Approach Data ]

Physical Parameter Table
Parameter Symbol Value Units Sigma Reference Notes
absolute magnitude H 16.0   n/a MPO455060  

277647 (2006 BM118)          Discovered 2006-Jan-26 by Spacewatch at Kitt Peak
Reference: 20110517/Numbers.arcLast Updated: 2011-05-20

[ show close-approach data ]
Ephemeris | Orbit Diagram | Orbital Elements | Mission Design | Physical Parameters | Discovery Circumstances | Close-Approach Data ]
ABOUT SSD CREDITS/AWARDS PRIVACY/COPYRIGHT GLOSSARY LINKS
FirstGov 2019-Dec-11 06:13 UT
(server date/time)  
NASA Home Page
Site Manager:   Ryan S. Park
Webmaster  Alan B. Chamberlin